Regional Weather Roundup
Issued by NWS Green Bay, WI

Home | Current Version | Previous Version | Text Only | Print | Product List | Glossary On
Versions: 1 2 3 4 5 6 7 8 9 10 11 12 13 14 15 16 17 18 19 20 21 22 23 24 25 26 27 28 29 30 31 32 33 34 35 36 37 38 39 40 41 42 43 44 45 46 47 48 49 50
000
ASUS43 KGRB 221811
RWRGRB

NORTH-CENTRAL AND NORTHEAST WISCONSIN REGIONAL WEATHER ROUNDUP
NATIONAL WEATHER SERVICE GREEN BAY WI
1200 PM CST WED FEB 22 2017

WIZ005-009-010>012-018-019-221900-
NORTH CENTRAL WISCONSIN

CITY           SKY/WX    TMP DP  RH WIND       PRES   REMARKS
IRONWOOD       CLOUDY    47  40  76 W5        29.61R
MANITOWISH WTR CLOUDY    46  41  84 CALM      29.59R
ARBOR VITAE    CLOUDY    49  42  74 N5          N/A
EAGLE RIVER    CLOUDY    48  37  64 CALM      29.57F
LAND O LAKES   CLOUDY    50  39  67 CALM      29.60R
RHINELANDER    PTSUNNY   53  41  63 CALM      29.57F
PHILLIPS       CLOUDY    48  40  74 NW3       29.58F
ANTIGO         MOSUNNY   48  40  73 NE5       29.57F
TOMAHAWK       CLOUDY    52  38  60 CALM      29.58F
MERRILL        NOT AVBL
$$

WIZ013-073-221900-
NORTHEAST WISCONSIN

CITY           SKY/WX    TMP DP  RH WIND       PRES   REMARKS
IRON MOUNTAIN  MOSUNNY   52  37  56 S6        29.56F
MARINETTE      CLOUDY    57  40  52 NW3       29.59F
OCONTO         SUNNY     56  44  62 S5        29.59F
$$

WIZ017-030-035>037-045-221900-
CENTRAL WISCONSIN

CITY           SKY/WX    TMP DP  RH WIND       PRES   REMARKS
MEDFORD        CLOUDY    49  38  66 S3        29.56F
WAUSAU         PTSUNNY   52  37  56 S6        29.56F
MOSINEE        PTSUNNY   52  37  58 SW7       29.59F
MARSHFIELD     MOSUNNY   53  38  56 W7        29.56F
WISC RAPIDS    MOSUNNY   58  37  45 W9        29.59F
STEVENS POINT  PTSUNNY   54  36  50 W5        29.58F
WAUPACA        MOSUNNY   65  41  42 SW7       29.58F
SHAWANO        MOSUNNY   57  44  62 CALM      29.59F
CLINTONVILLE   MOSUNNY   57  43  58 W3        29.58F
WAUTOMA        SUNNY     65  44  46 S9        29.57
$$

WIZ038-039-048-051-221900-
FOX VALLEY

CITY           SKY/WX    TMP DP  RH WIND       PRES   REMARKS
NWS GREEN BAY  SUNNY     58  50  75 SW10      29.59F
APPLETON       PTSUNNY   57  45  62 SW15      29.59F
OSHKOSH        SUNNY     61  49  64 SW16G24   29.58F
FOND DU LAC    SUNNY     63  46  54 SW18G29   29.59F
$$

WIZ022-050-052-221900-
EAST CENTRAL WISCONSIN

CITY           SKY/WX    TMP DP  RH WIND       PRES   REMARKS
EPHRAIM        FAIR      53  43  69 S5        29.60F
WASHINGTON ISL CLOUDY    40  38  90 S7        29.61R
STURGEON BAY   MOSUNNY   55  45  68 SE7       29.61F
MANITOWOC      SUNNY     52  46  80 S9        29.61F
SHEBOYGAN      SUNNY     66  48  52 SW17G24   29.61F
$$

LMZ563-521-522-541>543-221900-
LAKESHORE

STATION/POSITION TIME  TEMP    WIND        PRES    VSBY  WAVE
                       AIR SEA DIR/SP/G                  HT/PER
                 (UTC) (F)     (DEG/KT/KT) (MB)    (MI)  (FT/S)
SHEBOYGAN LKSHOR 1800   41     170/ 20/ 22 1003.0F
KEWAUNEE LKSHORE 1748   38     170/ 10/ 11 1002.8F
NORTHPORT PIER   1740   45     190/  4/ 11 1003.0F
SISTER BAY LKSHO 1735   53     150/  9/ 11   N/A
CHAMBERS ISLAND  1740   51     180/  5/  9 1002.7S
MENOMINEE LKSHOR 1748   38     130/ 10/ 10 1001.5F
$$




USA.gov is the U.S. government's official web portal to all federal, state and local government web resources and services.